TimeCDT,TemperatureF,Dew PointF,Humidity,Sea Level PressureIn,VisibilityMPH,Wind Direction,Wind SpeedMPH,Gust SpeedMPH,PrecipitationIn,Events,Conditions,WindDirDegrees,DateUTC
12:15 AM,39.2,30.2,70,30.21,10.0,SSE,8.1,-,N/A,,Mostly Cloudy,150,2012-10-29 05:15:00
12:35 AM,39.2,30.2,70,30.20,10.0,SSE,9.2,-,N/A,,Mostly Cloudy,150,2012-10-29 05:35:00
12:55 AM,39.2,30.2,70,30.20,10.0,SSE,9.2,-,N/A,,Overcast,150,2012-10-29 05:55:00
1:15 AM,39.2,30.2,70,30.20,10.0,SSE,9.2,-,N/A,,Mostly Cloudy,150,2012-10-29 06:15:00
1:35 AM,39.2,30.2,70,30.20,10.0,SSE,8.1,-,N/A,,Mostly Cloudy,150,2012-10-29 06:35:00
1:55 AM,39.2,28.4,65,30.19,10.0,SSE,9.2,-,N/A,,Mostly Cloudy,150,2012-10-29 06:55:00
2:15 AM,39.2,28.4,65,30.19,10.0,SSE,10.4,-,N/A,,Scattered Clouds,150,2012-10-29 07:15:00
2:35 AM,39.2,28.4,65,30.19,10.0,SSE,9.2,-,N/A,,Overcast,150,2012-10-29 07:35:00
2:55 AM,39.2,28.4,65,30.19,10.0,SE,10.4,-,N/A,,Mostly Cloudy,140,2012-10-29 07:55:00
3:15 AM,39.2,28.4,65,30.19,10.0,SSE,5.8,-,N/A,,Overcast,150,2012-10-29 08:15:00
3:35 AM,39.2,28.4,65,30.19,10.0,SSE,8.1,-,N/A,,Overcast,150,2012-10-29 08:35:00
3:55 AM,39.2,28.4,65,30.19,10.0,SSE,6.9,-,N/A,,Overcast,150,2012-10-29 08:55:00
4:15 AM,39.2,28.4,65,30.18,10.0,SSE,9.2,16.1,N/A,,Overcast,150,2012-10-29 09:15:00
4:55 AM,39.2,26.6,61,30.17,10.0,SSE,9.2,-,N/A,,Scattered Clouds,150,2012-10-29 09:55:00
5:15 AM,39.2,26.6,61,30.17,10.0,SSE,10.4,-,N/A,,Scattered Clouds,150,2012-10-29 10:15:00
5:55 AM,39.2,26.6,61,30.17,10.0,SSE,8.1,-,N/A,,Overcast,150,2012-10-29 10:55:00
6:15 AM,39.2,26.6,61,30.17,10.0,SSE,9.2,-,N/A,,Overcast,150,2012-10-29 11:15:00
6:35 AM,39.2,26.6,61,30.17,10.0,SSE,9.2,-,N/A,,Overcast,150,2012-10-29 11:35:00
6:55 AM,37.4,26.6,65,30.17,10.0,SSE,8.1,-,N/A,,Mostly Cloudy,150,2012-10-29 11:55:00
7:15 AM,37.4,26.6,65,30.17,10.0,SSE,9.2,-,N/A,,Scattered Clouds,150,2012-10-29 12:15:00
7:35 AM,37.4,26.6,65,30.16,10.0,SSE,10.4,-,N/A,,Clear,150,2012-10-29 12:35:00
7:55 AM,37.4,26.6,65,30.16,10.0,SE,9.2,-,N/A,,Scattered Clouds,140,2012-10-29 12:55:00
8:15 AM,37.4,26.6,65,30.16,10.0,SSE,11.5,16.1,N/A,,Scattered Clouds,150,2012-10-29 13:15:00
8:35 AM,37.4,26.6,65,30.16,10.0,SSE,9.2,-,N/A,,Clear,150,2012-10-29 13:35:00
8:55 AM,37.4,26.6,65,30.16,10.0,SSE,11.5,16.1,N/A,,Clear,160,2012-10-29 13:55:00
9:15 AM,39.2,26.6,61,30.17,10.0,SSE,13.8,17.3,N/A,,Clear,160,2012-10-29 14:15:00
9:35 AM,41.0,26.6,57,30.17,10.0,SSE,11.5,18.4,N/A,,Clear,160,2012-10-29 14:35:00
9:55 AM,42.8,26.6,53,30.18,10.0,South,15.0,23.0,N/A,,Clear,170,2012-10-29 14:55:00
10:15 AM,42.8,26.6,53,30.18,10.0,South,15.0,21.9,N/A,,Clear,170,2012-10-29 15:15:00
10:35 AM,44.6,26.6,49,30.17,10.0,SSE,16.1,23.0,N/A,,Clear,160,2012-10-29 15:35:00
10:55 AM,46.4,26.6,46,30.18,10.0,South,16.1,24.2,N/A,,Clear,170,2012-10-29 15:55:00
11:15 AM,46.4,26.6,46,30.18,10.0,South,16.1,23.0,N/A,,Clear,170,2012-10-29 16:15:00
11:35 AM,46.4,28.4,50,30.17,10.0,South,19.6,24.2,N/A,,Clear,180,2012-10-29 16:35:00
11:55 AM,48.2,28.4,46,30.17,10.0,South,13.8,23.0,N/A,,Clear,180,2012-10-29 16:55:00
12:15 PM,48.2,28.4,46,30.16,10.0,South,17.3,23.0,N/A,,Clear,180,2012-10-29 17:15:00
12:55 PM,50.0,28.4,43,30.15,10.0,South,15.0,26.5,N/A,,Clear,180,2012-10-29 17:55:00
1:15 PM,51.8,28.4,41,30.15,10.0,South,16.1,20.7,N/A,,Clear,170,2012-10-29 18:15:00
1:35 PM,51.8,28.4,41,30.14,10.0,South,16.1,21.9,N/A,,Clear,180,2012-10-29 18:35:00
1:55 PM,51.8,28.4,41,30.12,10.0,South,11.5,20.7,N/A,,Clear,170,2012-10-29 18:55:00
2:15 PM,53.6,28.4,38,30.12,10.0,South,15.0,18.4,N/A,,Clear,180,2012-10-29 19:15:00
2:35 PM,53.6,28.4,38,30.12,10.0,South,11.5,18.4,N/A,,Clear,180,2012-10-29 19:35:00
3:15 PM,53.6,28.4,38,30.11,10.0,South,12.7,-,N/A,,Clear,180,2012-10-29 20:15:00
3:35 PM,53.6,28.4,38,30.11,10.0,South,11.5,-,N/A,,Clear,170,2012-10-29 20:35:00
3:55 PM,53.6,28.4,38,30.11,10.0,SSE,11.5,16.1,N/A,,Clear,160,2012-10-29 20:55:00
4:15 PM,53.6,28.4,38,30.11,10.0,South,9.2,-,N/A,,Clear,170,2012-10-29 21:15:00
4:35 PM,53.6,28.4,38,30.12,10.0,SSE,8.1,-,N/A,,Clear,150,2012-10-29 21:35:00
4:55 PM,53.6,28.4,38,30.12,10.0,SSE,6.9,-,N/A,,Clear,150,2012-10-29 21:55:00
5:15 PM,53.6,28.4,38,30.12,10.0,SE,5.8,-,N/A,,Clear,140,2012-10-29 22:15:00
5:35 PM,53.6,28.4,38,30.11,10.0,SSE,8.1,-,N/A,,Clear,160,2012-10-29 22:35:00
5:55 PM,51.8,28.4,41,30.11,10.0,SSE,6.9,-,N/A,,Clear,150,2012-10-29 22:55:00
6:15 PM,50.0,30.2,47,30.11,10.0,SE,4.6,-,N/A,,Clear,140,2012-10-29 23:15:00
6:35 PM,48.2,30.2,50,30.11,10.0,SE,5.8,-,N/A,,Clear,140,2012-10-29 23:35:00
6:55 PM,46.4,30.2,53,30.12,10.0,SE,4.6,-,N/A,,Clear,130,2012-10-29 23:55:00
7:15 PM,44.6,30.2,57,30.12,10.0,ESE,4.6,-,N/A,,Clear,120,2012-10-30 00:15:00
7:35 PM,42.8,30.2,61,30.12,10.0,SE,6.9,-,N/A,,Clear,130,2012-10-30 00:35:00
7:55 PM,42.8,30.2,61,30.12,10.0,ESE,5.8,-,N/A,,Clear,110,2012-10-30 00:55:00
10:35 PM,37.4,28.4,70,30.13,10.0,SE,5.8,-,N/A,,Clear,130,2012-10-30 03:35:00
10:55 PM,37.4,28.4,70,30.13,10.0,ESE,6.9,-,N/A,,Clear,120,2012-10-30 03:55:00
11:15 PM,37.4,28.4,70,30.12,10.0,SE,5.8,-,N/A,,Clear,130,2012-10-30 04:15:00
11:35 PM,37.4,28.4,70,30.13,10.0,SE,6.9,-,N/A,,Clear,140,2012-10-30 04:35:00
11:55 PM,37.4,28.4,70,30.13,10.0,SE,5.8,-,N/A,,Clear,130,2012-10-30 04:55:00